When you browse on this site, cookies collect data to enhance your experience and personalize the content and advertising you see.
Visit our Privacy Policy to learn more. By continuing to use the site, you agree to this use of cookies and data.
  • en France
  • Liste des pays
  • À 7 jours
  • Température de l'eau
  • Carte satellitaire
  • Carte météo
  • Widgets météo
  • user-avatar
    Se connecter

    Météo par heure à Apatzingán de la Constitución

    Ce jour, 19 Juillet, Vendredi

    Heure Température Précipitation Vent Pression Humidité
    00:00 +25°C° 0.1 mm 1 m/s 732 mmHg 86%
    01:00 +25°C° 0.1 mm 1 m/s 732 mmHg 85%
    02:00 +25°C° 0.1 mm 1 m/s 731 mmHg 85%
    03:00 +25°C° 0.1 mm 1 m/s 731 mmHg 85%
    04:00 +22°C° 0.1 mm 0 m/s 731 mmHg 86%
    05:00 +22°C° 0.1 mm 0 m/s 731 mmHg 86%
    06:00 +25°C° 0 mm 1 m/s 732 mmHg 83%
    07:00 +27°C° 0 mm 1 m/s 732 mmHg 81%
    08:00 +28°C° 0 mm 1 m/s 732 mmHg 79%
    09:00 +30°C° 0.4 mm 1 m/s 732 mmHg 74%
    10:00 +32°C° 0.4 mm 1 m/s 732 mmHg 69%
    11:00 +34°C° 0.4 mm 1 m/s 732 mmHg 64%
    12:00 +34°C° 0.6 mm 1 m/s 731 mmHg 61%
    13:00 +34°C° 0.6 mm 1 m/s 731 mmHg 59%
    14:00 +35°C° 0.6 mm 1 m/s 730 mmHg 57%
    15:00 +34°C° 0.5 mm 1 m/s 730 mmHg 62%
    16:00 +33°C° 0.5 mm 1 m/s 730 mmHg 67%
    17:00 +32°C° 0.5 mm 1 m/s 730 mmHg 71%
    18:00 +30°C° 0.4 mm 1 m/s 730 mmHg 75%
    19:00 +28°C° 0.4 mm 1 m/s 731 mmHg 79%
    20:00 +26°C° 0.4 mm 1 m/s 731 mmHg 83%
    21:00 +26°C° 1.8 mm 1 m/s 732 mmHg 87%
    22:00 +25°C° 1.8 mm 1 m/s 732 mmHg 90%
    23:00 +25°C° 1.8 mm 1 m/s 733 mmHg 94%

    Demain, 20 Juillet, Samedi

    Heure Température Précipitation Vent Pression Humidité
    00:00 +25°C° 2.5 mm 1 m/s 732 mmHg 95%
    01:00 +23°C° 2.5 mm 0 m/s 732 mmHg 96%
    02:00 +23°C° 2.5 mm 0 m/s 732 mmHg 97%
    03:00 +22°C° 5 mm 0 m/s 732 mmHg 97%
    04:00 +22°C° 5 mm 0 m/s 732 mmHg 98%
    05:00 +22°C° 5 mm 0 m/s 731 mmHg 98%
    06:00 +22°C° 2.6 mm 0 m/s 732 mmHg 98%
    07:00 +22°C° 2.6 mm 0 m/s 732 mmHg 97%
    08:00 +23°C° 2.6 mm 0 m/s 732 mmHg 97%
    09:00 +26°C° 0.3 mm 1 m/s 732 mmHg 92%
    10:00 +27°C° 0.3 mm 1 m/s 732 mmHg 88%
    11:00 +28°C° 0.3 mm 1 m/s 732 mmHg 83%
    12:00 +29°C° 0.3 mm 1 m/s 731 mmHg 80%
    13:00 +30°C° 0.3 mm 1 m/s 731 mmHg 76%
    14:00 +31°C° 0.3 mm 1 m/s 730 mmHg 73%
    15:00 +29°C° 0.2 mm 0 m/s 730 mmHg 75%
    16:00 +28°C° 0.2 mm 0 m/s 730 mmHg 78%
    17:00 +27°C° 0.2 mm 0 m/s 729 mmHg 80%
    18:00 +26°C° 0.2 mm 0 m/s 730 mmHg 81%
    19:00 +25°C° 0.2 mm 0 m/s 730 mmHg 82%
    20:00 +24°C° 0.2 mm 0 m/s 731 mmHg 82%
    21:00 +24°C° 0.1 mm 0 m/s 731 mmHg 82%
    22:00 +24°C° 0.1 mm 0 m/s 731 mmHg 82%
    23:00 +24°C° 0.1 mm 0 m/s 732 mmHg 82%

    Après-demain, 21 Juillet, Dimanche

    Heure Température Précipitation Vent Pression Humidité
    00:00 +25°C° 0.5 mm 1 m/s 732 mmHg 85%
    01:00 +25°C° 0.5 mm 1 m/s 731 mmHg 88%
    02:00 +24°C° 0.5 mm 1 m/s 731 mmHg 91%
    03:00 +24°C° 0.2 mm 1 m/s 731 mmHg 92%
    04:00 +24°C° 0.2 mm 1 m/s 731 mmHg 92%
    05:00 +22°C° 0.2 mm 0 m/s 731 mmHg 93%
    06:00 +23°C° 0 mm 0 m/s 732 mmHg 91%
    07:00 +24°C° 0 mm 0 m/s 732 mmHg 88%
    08:00 +25°C° 0 mm 0 m/s 733 mmHg 86%
    09:00 +27°C° 0.1 mm 0 m/s 733 mmHg 80%
    10:00 +28°C° 0.1 mm 0 m/s 733 mmHg 75%
    11:00 +32°C° 0.1 mm 1 m/s 732 mmHg 70%
    12:00 +32°C° 0.2 mm 1 m/s 732 mmHg 67%
    13:00 +33°C° 0.2 mm 1 m/s 731 mmHg 65%
    14:00 +34°C° 0.2 mm 1 m/s 731 mmHg 63%
    15:00 +31°C° 0.3 mm 0 m/s 731 mmHg 67%
    16:00 +30°C° 0.3 mm 0 m/s 730 mmHg 72%
    17:00 +29°C° 0.3 mm 0 m/s 730 mmHg 76%
    18:00 +28°C° 0.1 mm 0 m/s 730 mmHg 78%
    19:00 +28°C° 0.1 mm 1 m/s 731 mmHg 80%
    20:00 +27°C° 0.1 mm 1 m/s 731 mmHg 82%
    21:00 +26°C° 0 mm 1 m/s 732 mmHg 81%
    22:00 +26°C° 0 mm 1 m/s 732 mmHg 81%
    23:00 +26°C° 0 mm 1 m/s 732 mmHg 80%

    22 Juillet, Lundi

    Heure Température Précipitation Vent Pression Humidité
    00:00 +26°C° 0 mm 1 m/s 732 mmHg 79%
    01:00 +26°C° 0 mm 1 m/s 732 mmHg 78%
    02:00 +25°C° 0 mm 1 m/s 731 mmHg 77%
    03:00 +23°C° 0 mm 0 m/s 731 mmHg 77%
    04:00 +23°C° 0 mm 0 m/s 731 mmHg 77%
    05:00 +23°C° 0 mm 0 m/s 731 mmHg 78%
    06:00 +24°C° 0 mm 0 m/s 732 mmHg 77%
    07:00 +25°C° 0 mm 0 m/s 732 mmHg 76%
    08:00 +27°C° 0 mm 0 m/s 733 mmHg 75%
    09:00 +28°C° 0.1 mm 0 m/s 732 mmHg 71%
    10:00 +30°C° 0.1 mm 0 m/s 732 mmHg 68%
    11:00 +33°C° 0.1 mm 1 m/s 732 mmHg 64%
    12:00 +34°C° 0.5 mm 1 m/s 732 mmHg 62%
    13:00 +35°C° 0.5 mm 1 m/s 731 mmHg 60%
    14:00 +33°C° 0.5 mm 0 m/s 730 mmHg 57%
    15:00 +32°C° 0.4 mm 0 m/s 730 mmHg 61%
    16:00 +32°C° 0.4 mm 0 m/s 730 mmHg 65%
    17:00 +31°C° 0.4 mm 0 m/s 730 mmHg 69%
    18:00 +31°C° 0.2 mm 1 m/s 730 mmHg 71%
    19:00 +29°C° 0.2 mm 1 m/s 731 mmHg 73%
    20:00 +28°C° 0.2 mm 1 m/s 731 mmHg 75%
    21:00 +27°C° 0.2 mm 1 m/s 731 mmHg 76%
    22:00 +27°C° 0.2 mm 1 m/s 732 mmHg 77%
    23:00 +27°C° 0.2 mm 1 m/s 732 mmHg 78%

    23 Juillet, Mardi

    Heure Température Précipitation Vent Pression Humidité
    00:00 +26°C° 0.3 mm 1 m/s 732 mmHg 79%
    01:00 +26°C° 0.3 mm 1 m/s 731 mmHg 81%
    02:00 +24°C° 0.3 mm 0 m/s 731 mmHg 83%
    03:00 +23°C° 0.3 mm 0 m/s 731 mmHg 84%
    04:00 +23°C° 0.3 mm 0 m/s 731 mmHg 85%
    05:00 +23°C° 0.3 mm 0 m/s 731 mmHg 87%
    06:00 +23°C° 0.4 mm 0 m/s 732 mmHg 87%
    07:00 +24°C° 0.4 mm 0 m/s 733 mmHg 88%
    08:00 +24°C° 0.4 mm 0 m/s 733 mmHg 89%
    09:00 +28°C° 0.3 mm 1 m/s 733 mmHg 85%
    10:00 +29°C° 0.3 mm 1 m/s 733 mmHg 80%
    11:00 +30°C° 0.3 mm 1 m/s 732 mmHg 76%
    12:00 +31°C° 0.4 mm 1 m/s 732 mmHg 73%
    13:00 +32°C° 0.4 mm 1 m/s 731 mmHg 70%
    14:00 +33°C° 0.4 mm 1 m/s 730 mmHg 66%
    15:00 +32°C° 0.9 mm 1 m/s 730 mmHg 71%
    16:00 +29°C° 0.9 mm 0 m/s 730 mmHg 75%
    17:00 +29°C° 0.9 mm 0 m/s 730 mmHg 79%
    18:00 +27°C° 0.5 mm 0 m/s 731 mmHg 80%
    19:00 +28°C° 0.5 mm 1 m/s 731 mmHg 82%
    20:00 +27°C° 0.5 mm 1 m/s 732 mmHg 84%
    21:00 +26°C° 1 mm 1 m/s 732 mmHg 86%
    22:00 +26°C° 1 mm 1 m/s 732 mmHg 88%
    23:00 +25°C° 1 mm 1 m/s 732 mmHg 90%

    24 Juillet, Mercredi

    Heure Température Précipitation Vent Pression Humidité
    00:00 +25°C° 1.1 mm 1 m/s 732 mmHg 91%
    01:00 +25°C° 1.1 mm 1 m/s 732 mmHg 92%
    02:00 +23°C° 1.1 mm 0 m/s 731 mmHg 93%
    03:00 +22°C° 0.3 mm 0 m/s 731 mmHg 93%
    04:00 +22°C° 0.3 mm 0 m/s 732 mmHg 93%
    05:00 +22°C° 0.3 mm 0 m/s 732 mmHg 93%
    06:00 +23°C° 0.1 mm 0 m/s 732 mmHg 90%
    07:00 +24°C° 0.1 mm 0 m/s 733 mmHg 88%
    08:00 +27°C° 0.1 mm 1 m/s 733 mmHg 85%
    09:00 +28°C° 0.2 mm 1 m/s 733 mmHg 80%
    10:00 +30°C° 0.2 mm 1 m/s 733 mmHg 74%
    11:00 +31°C° 0.2 mm 1 m/s 732 mmHg 69%
    12:00 +31°C° 0.2 mm 1 m/s 732 mmHg 66%
    13:00 +32°C° 0.2 mm 1 m/s 731 mmHg 64%
    14:00 +33°C° 0.2 mm 1 m/s 730 mmHg 62%
    15:00 +32°C° 0.3 mm 1 m/s 730 mmHg 66%
    16:00 +31°C° 0.3 mm 1 m/s 730 mmHg 71%
    17:00 +31°C° 0.3 mm 1 m/s 730 mmHg 75%
    18:00 +29°C° 0.9 mm 1 m/s 731 mmHg 78%
    19:00 +28°C° 0.9 mm 1 m/s 731 mmHg 81%
    20:00 +26°C° 0.9 mm 1 m/s 731 mmHg 83%
    21:00 +26°C° 0.3 mm 1 m/s 732 mmHg 84%
    22:00 +26°C° 0.3 mm 1 m/s 732 mmHg 85%
    23:00 +25°C° 0.3 mm 1 m/s 732 mmHg 86%
    Voir plus